Change the Weather History Date:

Saturday, July 27, 2013

  Actual Average Record
Temperature  
Mean Temperature 70 °F -  
Max Temperature 79 °F 87 °F 102 °F (2011)
Min Temperature 61 °F 70 °F 57 °F (2005)
Cooling Degree Days 4    
Growing Degree Days 20 (Base 50)    
Moisture  
Dew Point 51 °F    
Average Humidity 53    
Maximum Humidity 75    
Minimum Humidity 33    
Precipitation  
Precipitation 0.00 in - - ()
Sea Level Pressure  
Sea Level Pressure 30.04 in    
Wind  
Wind Speed 5 mph (NNW)    
Max Wind Speed 10 mph    
Max Gust Speed 17 mph    
Visibility 10 miles    
Events      
Averages and records for this station are not official NWS values.
T = Trace of Precipitation, MM = Missing Value Source: NWS Daily Summary

Daily Weather History Graph

Daily Weather History Graph

Search for Another Location

Airport or City:

Trip Planner

Search our weather history database for the weather conditions in past years. The results will help you decide how hot, cold, wet, or windy it might be!

Date:

Astronomy

Jul. 27, 2013 Rise Set
Actual Time 6:14 AM CDT 8:34 PM CDT
Civil Twilight 5:44 AM CDT 9:04 PM CDT
Nautical Twilight 5:07 AM CDT 9:41 PM CDT
Astronomical Twilight 4:26 AM CDT 10:22 PM CDT
Moon 11:25 PM CDT (7/27) 11:52 AM CDT (7/27)
Length of Visible Light 15h 20m
Length of Day
14h 19m
Waning Gibbous, 70% of the Moon is Illuminated
Jul 27
Waning Gibbous
Jul 29
Last Quarter
Aug 6
New
Aug 14
First Quarter
Aug 20
Full

Hourly Weather History & Observations

Time (CDT) Temp. Dew Point Humidity Pressure Visibility Wind Dir Wind Speed Gust Speed Precip Events Conditions
12:54 AM 66.9 °F 53.1 °F 61% 30.06 in 10.0 mi Variable 3.5 mph - N/A   Clear
1:54 AM 64.9 °F 54.0 °F 68% 30.06 in 10.0 mi North 4.6 mph - N/A   Clear
2:54 AM 64.0 °F 53.1 °F 67% 30.06 in 10.0 mi North 4.6 mph - N/A   Clear
3:54 AM 63.0 °F 53.1 °F 70% 30.05 in 10.0 mi North 3.5 mph - N/A   Clear
4:54 AM 62.1 °F 53.1 °F 72% 30.05 in 10.0 mi North 3.5 mph - N/A   Clear
5:54 AM 61.0 °F 53.1 °F 75% 30.06 in 10.0 mi NW 3.5 mph - N/A   Clear
6:54 AM 61.0 °F 53.1 °F 75% 30.08 in 10.0 mi NNW 4.6 mph - N/A   Clear
7:54 AM 63.0 °F 54.0 °F 72% 30.09 in 10.0 mi NW 3.5 mph - 0.00 in   Mostly Cloudy
8:43 AM 64.4 °F 53.6 °F 68% 30.11 in 10.0 mi NW 4.6 mph - N/A   Mostly Cloudy
8:54 AM 66.0 °F 54.0 °F 65% 30.10 in 10.0 mi WNW 4.6 mph - N/A   Mostly Cloudy
9:54 AM 68.0 °F 55.0 °F 63% 30.09 in 10.0 mi WNW 3.5 mph - 0.00 in   Clear
10:54 AM 73.0 °F 52.0 °F 48% 30.08 in 10.0 mi NNW 5.8 mph - N/A   Clear
11:54 AM 73.0 °F 48.9 °F 42% 30.07 in 10.0 mi NNW 9.2 mph 17.3 mph N/A   Partly Cloudy
12:54 PM 75.9 °F 51.1 °F 42% 30.04 in 10.0 mi North 6.9 mph - N/A   Clear
1:38 PM 77.0 °F 50.0 °F 39% 30.05 in 10.0 mi NNE 9.2 mph - N/A   Partly Cloudy
1:54 PM 77.0 °F 50.0 °F 39% 30.03 in 10.0 mi NNE 10.4 mph 16.1 mph N/A   Partly Cloudy
2:54 PM 78.1 °F 51.1 °F 39% 30.01 in 10.0 mi West 8.1 mph - N/A   Partly Cloudy
3:54 PM 78.1 °F 46.9 °F 33% 30.00 in 10.0 mi West 10.4 mph - N/A   Clear
4:54 PM 77.0 °F 46.9 °F 34% 30.00 in 10.0 mi NW 10.4 mph - N/A   Clear
5:54 PM 75.9 °F 46.9 °F 36% 29.99 in 10.0 mi NW 6.9 mph - N/A   Clear
6:54 PM 75.9 °F 46.9 °F 36% 29.98 in 10.0 mi NNW 8.1 mph - N/A   Clear
7:54 PM 73.9 °F 45.0 °F 35% 29.98 in 10.0 mi North 6.9 mph - N/A   Clear
8:54 PM 70.0 °F 46.9 °F 44% 29.98 in 10.0 mi North 6.9 mph - N/A   Clear
9:54 PM 69.1 °F 48.0 °F 47% 30.01 in 10.0 mi North 5.8 mph - N/A   Clear
10:54 PM 66.0 °F 48.9 °F 54% 30.01 in 10.0 mi North 4.6 mph - N/A   Clear
11:54 PM 64.9 °F 50.0 °F 58% 30.02 in 10.0 mi NNW 3.5 mph - N/A   Clear